Terminal Aerodrome Forecast
Issued by NWS

Home | Current Version | Previous Version | Text Only | Print | Product List | Glossary On
Versions: 1 2 3 4 5 6 7 8 9 10 11 12 13 14 15 16 17 18 19 20
000
FTUS46 KSGX 310700 AAA
TAFCRQ
TAF AMD
KCRQ 310743Z 3108/0106 16005KT P6SM OVC008
      TEMPO 3108/3110 BKN005
     FM311700 23007KT P6SM FEW016
     FM010400 VRB05KT P6SM OVC014=

USA.gov is the U.S. government's official web portal to all federal, state and local government web resources and services.